Location: Antioch
(38.0049°N, 121.8058°W)
Time: 03:26:57
(UTC+00:00)

Cosmos 1354 Rocket - Pass Details

Date: 19 May 2026
Orbit: 761 x 778 km, 74.0° (Epoch: 9 June)

Event Time Altitude Azimuth Distance (km) Brightness Sun altitude
Rises 06:14:20 0° 336° (NNW) 3,235 8.5 -26.8°
Reaches altitude 10° 06:16:45 10° 332° (NNW) 2,303 7.5 -27.0°
Maximum altitude 06:21:50 54° 256° (WSW) 922 4.4 -27.4°
Enters shadow 06:21:52 54° 254° (WSW) 923 4.4 -27.5°
